Skip Page Navigation
NASA JPL Caltech
NASA Logo - Jet Propulsion Laboratory + View the NASA Portal
+ Center for Near-Earth Object Studies
JPL Home Earth Solar System Stars & Galaxies Technology
JPL Solar System Dynamics
BODIES ORBITS EPHEMERIDES TOOLS PHYSICAL DATA DISCOVERY FAQ SITE MAP
JPL Small-Body Database Browser
Search: [ help ]  
(1997 MD10)
Classification: Centaur          SPK-ID: 3010203
Ephemeris | Orbit Diagram | Orbital Elements | Physical Parameters ]

[ show orbit diagram ]
Orbital Elements at Epoch 2459000.5 (2020-May-31.0) TDB
Reference: JPL 3 (heliocentric ecliptic J2000)
 Element Value Uncertainty (1-sigma)   Units 
e .9426504547138732 1.4339e-05  
a 26.46814028152069 0.0067707 au
q 1.517935809714628 1.1947e-05 au
i 59.47833603915265 0.00038708 deg
node 282.22314891115 3.3834e-05 deg
peri 68.47691703359185 0.00074878 deg
M 59.63310708397565 0.022883 deg
tp 2450761.613768490894
(1997-Nov-09.11376849)
0.00033424 TDB
period 49737.45606054943
136.17
19.085
0.05225
d
yr
n .007238005891610999 2.7773e-06 deg/d
Q 51.41834475332676 0.013153 au
  Orbit Determination Parameters
   # obs. used (total)      119  
   data-arc span      137 days  
   first obs. used      1997-06-29  
   last obs. used      1997-11-13  
   planetary ephem.      DE431  
   SB-pert. ephem.      SB431-N16  
   condition code      4  
   norm. resid. RMS      .68599  
   source      ORB  
   producer      Otto Matic  
   solution date      2017-Apr-09 00:00:53  

Additional Information
 Earth MOID = .885702 au 
 Jupiter MOID = .391666 au 
 T_jup = 0.961 
[ show covariance matrix ]

Ephemeris | Orbit Diagram | Orbital Elements | Physical Parameters ]

Physical Parameter Table
Parameter Symbol Value Units Sigma Reference Notes
absolute magnitude H 16.0   n/a MPC31010  
Ephemeris | Orbit Diagram | Orbital Elements | Physical Parameters ]
ABOUT SSD CREDITS/AWARDS PRIVACY/COPYRIGHT GLOSSARY LINKS
FirstGov 2020-Dec-01 13:09 UT
(server date/time)  
NASA Home Page
Site Manager:   Ryan S. Park
Webmaster  Alan B. Chamberlin